When you browse on this site, cookies collect data to enhance your experience and personalize the content and advertising you see.
Visit our Privacy Policy to learn more. By continuing to use the site, you agree to this use of cookies and data.
  • In Österreich
  • Länderverzeichnis
  • Für 7 Tage
  • Wassertemperatur
  • Wetterkarte
  • News
  • Widgets
  • user-avatar
    Anmelden

    Stündliche Wetter Koimbra

    Heute, 9 April, Donnerstag

    Zeit Temperatur Niederschläge Wind Luftdruck Luftfeuchtigkeit
    00:00 +16°C° 0.9 mm 1 m/S 756 mmHg 94%
    01:00 +15°C° 0.9 mm 1 m/S 756 mmHg 94%
    02:00 +15°C° 0.9 mm 1 m/S 755 mmHg 95%
    03:00 +15°C° 2.8 mm 1 m/S 755 mmHg 96%
    04:00 +15°C° 2.8 mm 2 m/S 755 mmHg 96%
    05:00 +15°C° 2.8 mm 2 m/S 755 mmHg 97%
    06:00 +15°C° 2.1 mm 2 m/S 755 mmHg 97%
    07:00 +15°C° 2.1 mm 2 m/S 756 mmHg 96%
    08:00 +16°C° 2.1 mm 2 m/S 756 mmHg 95%
    09:00 +16°C° 0.5 mm 2 m/S 756 mmHg 94%
    10:00 +16°C° 0.5 mm 2 m/S 756 mmHg 94%
    11:00 +16°C° 0.5 mm 2 m/S 756 mmHg 93%
    12:00 +17°C° 0.2 mm 2 m/S 756 mmHg 92%
    13:00 +17°C° 0.2 mm 2 m/S 756 mmHg 91%
    14:00 +17°C° 0.2 mm 2 m/S 756 mmHg 90%
    15:00 +18°C° 0.1 mm 1 m/S 756 mmHg 92%
    16:00 +18°C° 0.1 mm 1 m/S 756 mmHg 93%
    17:00 +16°C° 0.1 mm 1 m/S 756 mmHg 94%
    18:00 +16°C° 0 mm 1 m/S 757 mmHg 95%
    19:00 +16°C° 0 mm 1 m/S 757 mmHg 96%
    20:00 +15°C° 0 mm 1 m/S 757 mmHg 97%
    21:00 +15°C° 0 mm 1 m/S 757 mmHg 97%
    22:00 +15°C° 0 mm 1 m/S 758 mmHg 97%
    23:00 +15°C° 0 mm 1 m/S 758 mmHg 97%

    Morgen, 10 April, Freitag

    Zeit Temperatur Niederschläge Wind Luftdruck Luftfeuchtigkeit
    00:00 +14°C° 0 mm 0 m/S 757 mmHg 97%
    01:00 +14°C° 0 mm 0 m/S 757 mmHg 96%
    02:00 +14°C° 0 mm 0 m/S 757 mmHg 96%
    03:00 +14°C° 0 mm 0 m/S 757 mmHg 96%
    04:00 +14°C° 0 mm 0 m/S 757 mmHg 96%
    05:00 +13°C° 0 mm 0 m/S 758 mmHg 96%
    06:00 +15°C° 0.1 mm 0 m/S 758 mmHg 92%
    07:00 +16°C° 0.1 mm 0 m/S 758 mmHg 88%
    08:00 +19°C° 0.1 mm 1 m/S 758 mmHg 84%
    09:00 +20°C° 0.2 mm 1 m/S 758 mmHg 78%
    10:00 +20°C° 0.2 mm 2 m/S 758 mmHg 72%
    11:00 +21°C° 0.2 mm 2 m/S 758 mmHg 66%
    12:00 +21°C° 0.2 mm 3 m/S 758 mmHg 67%
    13:00 +21°C° 0.2 mm 3 m/S 757 mmHg 68%
    14:00 +21°C° 0.2 mm 3 m/S 757 mmHg 69%
    15:00 +20°C° 0 mm 3 m/S 757 mmHg 72%
    16:00 +19°C° 0 mm 3 m/S 757 mmHg 75%
    17:00 +18°C° 0 mm 3 m/S 757 mmHg 78%
    18:00 +17°C° 0 mm 2 m/S 757 mmHg 84%
    19:00 +15°C° 0 mm 1 m/S 758 mmHg 90%
    20:00 +14°C° 0 mm 1 m/S 758 mmHg 96%
    21:00 +14°C° 0 mm 1 m/S 758 mmHg 97%
    22:00 +13°C° 0 mm 1 m/S 758 mmHg 98%
    23:00 +13°C° 0 mm 1 m/S 758 mmHg 98%

    übermorgen, 11 April, Samstag

    Zeit Temperatur Niederschläge Wind Luftdruck Luftfeuchtigkeit
    00:00 +13°C° 0 mm 1 m/S 758 mmHg 98%
    01:00 +13°C° 0 mm 1 m/S 758 mmHg 97%
    02:00 +13°C° 0 mm 1 m/S 758 mmHg 97%
    03:00 +13°C° 0 mm 1 m/S 758 mmHg 96%
    04:00 +13°C° 0 mm 1 m/S 758 mmHg 96%
    05:00 +13°C° 0 mm 1 m/S 758 mmHg 95%
    06:00 +14°C° 0 mm 1 m/S 758 mmHg 89%
    07:00 +15°C° 0 mm 2 m/S 758 mmHg 83%
    08:00 +16°C° 0 mm 2 m/S 758 mmHg 77%
    09:00 +17°C° 0 mm 2 m/S 758 mmHg 73%
    10:00 +18°C° 0 mm 2 m/S 758 mmHg 69%
    11:00 +18°C° 0 mm 2 m/S 758 mmHg 66%
    12:00 +19°C° 0 mm 2 m/S 757 mmHg 64%
    13:00 +19°C° 0 mm 3 m/S 757 mmHg 63%
    14:00 +19°C° 0 mm 3 m/S 756 mmHg 62%
    15:00 +18°C° 0 mm 3 m/S 756 mmHg 66%
    16:00 +18°C° 0 mm 3 m/S 756 mmHg 70%
    17:00 +17°C° 0 mm 3 m/S 755 mmHg 74%
    18:00 +14°C° 0 mm 3 m/S 756 mmHg 82%
    19:00 +14°C° 0 mm 2 m/S 756 mmHg 89%
    20:00 +12°C° 0 mm 2 m/S 757 mmHg 97%
    21:00 +12°C° 0 mm 1 m/S 757 mmHg 97%
    22:00 +12°C° 0 mm 1 m/S 757 mmHg 97%
    23:00 +12°C° 0 mm 1 m/S 757 mmHg 97%

    12 April, Sonntag

    Zeit Temperatur Niederschläge Wind Luftdruck Luftfeuchtigkeit
    00:00 +12°C° 0 mm 1 m/S 756 mmHg 96%
    01:00 +12°C° 0 mm 1 m/S 756 mmHg 96%
    02:00 +12°C° 0 mm 1 m/S 755 mmHg 96%
    03:00 +12°C° 0 mm 1 m/S 755 mmHg 95%
    04:00 +12°C° 0 mm 1 m/S 755 mmHg 95%
    05:00 +12°C° 0 mm 1 m/S 755 mmHg 94%
    06:00 +13°C° 0 mm 1 m/S 755 mmHg 86%
    07:00 +15°C° 0 mm 1 m/S 755 mmHg 79%
    08:00 +18°C° 0 mm 1 m/S 755 mmHg 71%
    09:00 +19°C° 0 mm 1 m/S 755 mmHg 67%
    10:00 +19°C° 0 mm 2 m/S 754 mmHg 63%
    11:00 +20°C° 0 mm 2 m/S 754 mmHg 59%
    12:00 +20°C° 0 mm 3 m/S 754 mmHg 61%
    13:00 +20°C° 0 mm 4 m/S 753 mmHg 63%
    14:00 +20°C° 0 mm 4 m/S 753 mmHg 65%
    15:00 +19°C° 0 mm 4 m/S 753 mmHg 69%
    16:00 +18°C° 0 mm 4 m/S 752 mmHg 73%
    17:00 +17°C° 0 mm 4 m/S 752 mmHg 77%
    18:00 +15°C° 0 mm 4 m/S 752 mmHg 81%
    19:00 +14°C° 0 mm 3 m/S 752 mmHg 85%
    20:00 +13°C° 0 mm 3 m/S 753 mmHg 89%
    21:00 +12°C° 0 mm 3 m/S 752 mmHg 90%
    22:00 +13°C° 0 mm 2 m/S 752 mmHg 90%
    23:00 +13°C° 0 mm 2 m/S 752 mmHg 91%

    13 April, Montag

    Zeit Temperatur Niederschläge Wind Luftdruck Luftfeuchtigkeit
    00:00 +13°C° 0 mm 2 m/S 751 mmHg 91%
    01:00 +13°C° 0 mm 2 m/S 751 mmHg 91%
    02:00 +13°C° 0 mm 1 m/S 750 mmHg 92%
    03:00 +12°C° 0.1 mm 2 m/S 750 mmHg 91%
    04:00 +11°C° 0.1 mm 3 m/S 750 mmHg 91%
    05:00 +11°C° 0.1 mm 3 m/S 749 mmHg 90%
    06:00 +11°C° 0 mm 3 m/S 749 mmHg 84%
    07:00 +12°C° 0 mm 3 m/S 749 mmHg 77%
    08:00 +12°C° 0 mm 3 m/S 749 mmHg 71%
    09:00 +13°C° 0 mm 3 m/S 749 mmHg 66%
    10:00 +13°C° 0 mm 3 m/S 749 mmHg 61%
    11:00 +14°C° 0 mm 3 m/S 749 mmHg 56%
    12:00 +14°C° 0 mm 3 m/S 749 mmHg 58%
    13:00 +14°C° 0 mm 3 m/S 749 mmHg 59%
    14:00 +14°C° 0 mm 3 m/S 748 mmHg 61%
    15:00 +14°C° 0 mm 3 m/S 748 mmHg 61%
    16:00 +14°C° 0 mm 2 m/S 748 mmHg 62%
    17:00 +14°C° 0 mm 2 m/S 748 mmHg 63%
    18:00 +12°C° 0 mm 2 m/S 749 mmHg 70%
    19:00 +11°C° 0 mm 1 m/S 749 mmHg 78%
    20:00 +9°C° 0 mm 1 m/S 749 mmHg 85%
    21:00 +9°C° 0 mm 1 m/S 749 mmHg 87%
    22:00 +9°C° 0 mm 1 m/S 750 mmHg 88%
    23:00 +8°C° 0 mm 1 m/S 750 mmHg 89%

    14 April, Dienstag

    Zeit Temperatur Niederschläge Wind Luftdruck Luftfeuchtigkeit
    00:00 +8°C° 0 mm 1 m/S 749 mmHg 89%
    01:00 +8°C° 0 mm 1 m/S 749 mmHg 88%
    02:00 +7°C° 0 mm 2 m/S 749 mmHg 88%
    03:00 +7°C° 0 mm 2 m/S 749 mmHg 87%
    04:00 +7°C° 0 mm 2 m/S 749 mmHg 87%
    05:00 +7°C° 0 mm 2 m/S 749 mmHg 86%
    06:00 +9°C° 0 mm 3 m/S 749 mmHg 77%
    07:00 +11°C° 0 mm 4 m/S 749 mmHg 67%
    08:00 +13°C° 0 mm 5 m/S 749 mmHg 58%
    09:00 +14°C° 0 mm 5 m/S 749 mmHg 56%
    10:00 +15°C° 0 mm 5 m/S 749 mmHg 53%
    11:00 +16°C° 0 mm 5 m/S 749 mmHg 51%
    12:00 +16°C° 0 mm 5 m/S 748 mmHg 51%
    13:00 +17°C° 0 mm 4 m/S 748 mmHg 50%
    14:00 +18°C° 0 mm 4 m/S 747 mmHg 50%
    15:00 +15°C° 0.5 mm 4 m/S 747 mmHg 62%
    16:00 +14°C° 0.5 mm 3 m/S 746 mmHg 74%
    17:00 +12°C° 0.5 mm 3 m/S 746 mmHg 86%
    18:00 +13°C° 0.4 mm 2 m/S 746 mmHg 89%
    19:00 +12°C° 0.4 mm 2 m/S 746 mmHg 91%
    20:00 +10°C° 0.4 mm 2 m/S 747 mmHg 94%
    21:00 +10°C° 0 mm 2 m/S 747 mmHg 94%
    22:00 +9°C° 0 mm 3 m/S 747 mmHg 94%
    23:00 +9°C° 0 mm 3 m/S 747 mmHg 94%
    Mehr zeigen